Location: Charlotte
(35.2270°N, 80.8430°W)
Time: 00:06:29
(UTC-04:00)

Daily predictions for brighter satellites

Satellite Brightness Start Highest point End
(mag) Time Altitude Azimuth Time Altitude Azimuth Time Altitude Azimuth
Cosmos 1709 Rocket 3.9 00:13:01 10° N 00:19:14 73° W 00:19:27 72° WSW
ALOS 2 4.4 00:20:27 25° NE 00:20:27 25° NE 00:23:02 10° N
Cosmos 2278 Rocket 3.1 00:20:26 37° W 00:21:46 43° WNW 00:27:10 10° N
NOSS 3-4 (A) 3.9 00:20:16 40° WSW 00:22:11 56° NW 00:28:26 10° NNE
NOSS 3-4 (C) 3.9 00:20:25 41° WSW 00:22:16 57° NW 00:28:32 10° NNE
COSMOS 2406 4.4 00:26:00 10° NW 00:30:39 31° W 00:30:39 31° W
Cosmos 2074 Rocket 4.3 00:25:23 10° N 00:31:22 55° ENE 00:31:22 55° ENE
CENTAUR R/B 3.7 00:30:41 10° NNW 00:38:30 50° NE 00:41:25 37° ESE
ADEOS Rocket 3.1 00:37:32 10° NNE 00:43:06 71° ENE 00:43:06 71° ENE
USA 234 3.3 00:40:34 10° NE 00:46:17 63° E 00:46:17 63° E
RESURS DK-1 4.4 00:50:15 27° N 00:50:15 27° N 00:52:15 10° NNE
H-2A R/B 3.9 00:53:56 26° NNE 00:53:56 26° NNE 00:56:00 10° N
H-2A R/B 4.1 00:49:48 42° SW 00:53:30 63° SSE 06:57:58 10° SE
Meteor 1-27 4.5 00:47:56 10° N 00:53:08 69° NW 00:53:08 69° NW
Cosmos 2369 Rocket 4.1 00:55:50 19° ENE 00:55:50 19° ENE 00:58:16 10° NE
Cosmos 2297 4.2 01:01:31 54° NW 01:01:31 54° NW 01:06:51 10° NNE
Meteor 2-10 Rocket 4.4 01:01:07 10° N 01:05:02 44° NE 01:05:02 44° NE
Cosmos 2184 Rocket 4.0 01:00:06 10° N 01:06:02 75° NW 01:06:02 75° NW
Mayak 0.6 01:05:26 10° N 01:07:41 28° NNW 01:07:41 28° NNW
Meteor 2-21 4.5 01:05:15 10° N 01:10:42 73° NNE 01:10:42 73° NNE
Cosmos 2154 Rocket 4.2 01:06:46 10° N 01:12:47 65° ENE 01:12:47 65° ENE
Cosmos 2082 Rocket 2.7 01:07:31 10° NNW 01:12:02 54° NW 01:12:02 54° NW
ATLAS 5 CENTAUR R/B 3.5 01:14:00 24° NW 01:14:14 24° NW 01:18:10 10° N
ATLAS 3B R/B 4.0 01:12:09 10° NW 01:16:10 24° W 01:16:10 24° W
Cosmos 1833 Rocket 3.6 01:17:03 10° NNW 01:20:59 40° WNW 01:20:59 40° WNW
Cosmos 2341 Rocket 4.5 01:17:28 10° N 01:23:35 52° ENE 01:23:35 52° ENE
Cosmos 1943 Rocket 3.1 01:45:58 40° ENE 01:45:58 40° ENE 01:49:58 10° NNE
BREEZE-M R/B 4.3 01:43:12 10° NW 01:48:54 76° SW 01:48:58 76° SW
MOS 1 Rocket 4.3 01:48:54 10° NNE 01:52:22 45° NNE 01:52:22 45° NNE
Cosmos 1140 Rocket 4.3 01:55:35 47° NNW 01:55:35 47° NNW 01:59:32 10° N
Timation 2 Rocket 4.5 01:52:50 10° NNW 01:59:29 59° ENE 02:00:37 53° ESE
CZ-2D R/B 4.5 01:58:41 10° ENE 02:00:34 12° E 02:00:48 12° E
Cosmos 2366 rocket 4.2 02:03:43 10° N 02:09:47 59° E 02:09:59 58° E
Cosmos 1959 Rocket 4.4 02:13:31 10° N 02:19:54 80° E 02:20:03 79° ESE
Meteor 2-3 Rocket 3.8 02:25:50 71° ENE 02:25:50 71° ENE 02:31:19 10° NNE
CENTAUR R/B 3.8 02:21:43 10° NW 02:28:33 38° WSW 02:28:33 38° WSW
Resurs 1-4 Rocket 3.6 02:28:45 10° NE 02:33:10 26° E 02:33:30 26° ESE
Cosmos 2369 Rocket 2.9 02:37:37 42° WNW 02:37:38 42° WNW 02:42:59 10° N
SL-08 R/B 4.3 02:33:55 10° N 02:40:04 90° ESE 02:40:17 84° S
BREEZE-M DEB (TANK) 4.0 02:42:16 47° WSW 02:44:11 69° NW 02:47:37 10° NE
Lacrosse 4 Rocket 2.6 02:52:46 40° ENE 02:52:46 40° ENE 02:56:01 10° NE
GP-B 3.7 02:49:37 10° N 02:53:22 54° NE 02:53:22 54° NE
Cosmos 2242 Rocket 4.1 02:54:28 10° N 02:58:04 57° N 02:58:04 57° N
CBERS-1 4.2 02:56:18 10° NNE 03:01:24 61° E 03:01:34 61° ESE
SL-08 R/B 4.4 03:00:50 34° ESE 03:01:59 39° ENE 03:06:23 10° N
ARIANE 5 R/B 4.0 02:58:20 10° NE 03:02:29 26° E 03:03:29 24° ESE
ATLAS 2A CENTAUR R/B 4.5 03:04:48 31° SSE 03:04:48 31° SSE 03:11:31 10° ESE
Cosmos 1825 3.7 03:07:42 31° NNW 03:07:42 31° NNW 03:09:53 10° N
Cosmos 1606 4.0 03:03:04 10° N 03:05:33 39° N 03:05:33 39° N
Cosmos 1763 Rocket 4.1 03:03:02 10° N 03:07:57 49° ENE 03:09:28 37° ESE
Cosmos 1821 Rocket 4.3 03:04:07 10° N 03:10:23 63° E 03:12:45 38° SE
Cosmos 1656 Rocket 3.6 03:14:34 65° WSW 03:15:04 69° WNW 03:20:43 10° NNE
CZ-4B R/B 4.0 03:20:23 13° NNW 03:20:23 13° NNW 03:20:49 10° NNW
Cosmos 1867 3.4 03:20:08 75° SSW 03:20:37 89° W 03:26:07 10° NNE
IRS-1C 4.2 03:16:42 10° NNE 03:22:02 71° ESE 03:22:56 59° SSE
Cosmos 1814 Rocket 4.3 03:18:37 10° N 03:23:53 64° ENE 03:25:46 38° SE
Cosmos 1833 4.0 03:21:20 10° NNW 03:26:55 76° WSW 03:27:46 63° S
Cosmos 1943 Rocket 3.8 03:27:29 20° WNW 03:28:38 21° WNW 03:32:45 10° N
Cosmos 1437 Rocket 3.4 03:29:54 49° ESE 03:30:04 50° E 03:34:03 10° NNE
NPP 3.7 03:25:10 10° N 03:30:29 62° WNW 03:31:12 56° WSW
Meteor 2-6 Rocket 4.1 03:25:17 10° N 03:30:41 82° E 03:32:08 50° SSE
Cosmos 1703 Rocket 3.7 03:29:36 10° N 03:33:59 68° E 03:34:33 60° SE
Cosmos 1818 3.6 03:31:54 10° NNW 03:37:24 82° ENE 03:40:38 25° SSE
Cosmos 841 Rocket 3.8 03:32:16 10° N 03:37:26 64° ENE 03:40:09 28° SE
Spot 4 Rocket 4.3 03:32:38 10° NNE 03:37:44 62° ESE 03:39:10 44° SSE
CZ-2D R/B 2.1 03:35:44 10° N 03:41:01 70° WNW 03:42:08 54° SW
AQUA 3.9 03:36:51 10° N 03:41:30 56° WNW 03:41:55 54° W
Cosmos 1782 3.8 03:38:16 10° NNW 03:41:03 36° NW 03:41:03 36° NW
ADEOS II 3.8 03:40:37 10° NE 03:45:00 26° E 03:48:34 14° SSE
Cosmos 468 Rocket 4.5 03:40:22 10° NNW 03:44:48 40° W 03:44:48 40° W
Cosmos 1184 Rocket 4.2 03:42:20 10° NNE 03:45:19 33° ENE 03:45:50 31° E
Okean 1-7 3.2 03:42:24 10° N 03:46:48 68° E 03:47:59 46° SSE
Meteor 1-10 Rocket 4.1 03:42:47 10° NNW 03:48:20 68° W 03:49:55 46° SSW
SL-16 R/B 2.5 03:46:32 41° SSW 03:48:39 66° WSW 03:54:47 10° NNW
IRS-1D 3.4 03:43:53 10° N 03:48:59 73° WNW 03:50:08 53° SW
Meteor 1-27 Rocket 3.9 03:45:12 10° N 03:51:01 74° E 03:54:47 23° SSE
Cosmos 2219 4.3 03:47:20 10° N 03:52:43 44° ENE 03:58:03 10° SE
UNK 3.9 03:55:00 49° WSW 03:55:13 50° W 03:59:45 10° NNW
H-2A R/B 2.9 03:51:54 10° N 03:55:37 42° WNW 03:55:37 42° WNW
Meteor 1-4 Rocket 2.6 03:56:02 67° SE 03:56:17 70° E 03:59:56 10° NNE
PSLV R/B 3.9 03:58:15 46° SSE 03:59:29 88° ENE 04:03:43 10° NNW
Cosmos 1733 Rocket 4.5 03:57:33 18° SE 04:00:01 33° E 04:03:54 10° NNE
Cosmos 1354 Rocket 4.1 03:58:31 38° S 04:00:30 73° ESE 04:05:43 10° NNE
Cosmos 1535 Rocket 4.5 03:56:22 10° NNW 04:02:24 61° W 04:04:57 35° SSW
Cosmos 1486 Rocket 4.4 04:03:11 38° WSW 04:04:37 48° WNW 04:09:46 10° N
Cosmos 44 Rocket 3.9 04:03:27 32° SSE 04:05:15 48° ESE 04:10:00 10° NE
GPS 2-04 Rocket1 3.4 04:06:03 39° SSE 04:06:03 39° SSE 04:09:51 10° E
Cosmos 1605 Rocket 3.9 04:00:21 10° N 04:06:29 83° E 04:11:12 18° S
Cosmos 1862 4.3 04:12:47 29° W 04:12:48 29° WNW 04:16:19 10° NNW
Cosmos 1339 Rocket 4.4 04:09:18 28° S 04:12:49 84° W 04:19:11 10° N
Resurs 1-4 Rocket 3.0 04:08:13 10° N 04:12:58 34° WNW 04:14:35 28° WSW
CBERS 1 LM4 rocket 4.3 04:09:10 10° NNE 04:14:12 87° W 04:16:25 33° SSW
SAR-Lupe-2 3.8 04:17:03 23° SSE 04:19:08 66° ENE 04:22:41 10° N
Cosmos 44 3.2 04:17:36 39° SW 04:19:16 69° WNW 04:24:08 10° NNE
Cosmos 2297 Rocket 4.2 04:16:08 10° N 04:21:01 29° ENE 04:25:52 10° ESE
Cosmos 389 Rocket 2.9 04:21:40 31° SSE 04:23:13 62° E 04:26:49 10° NNE
Cosmos 1934 Rocket 4.4 04:18:07 10° NNW 04:24:05 45° W 04:27:12 26° SW
ATLAS CENTAUR Rocket 2.6 04:26:13 29° SSW 04:27:25 35° SSE 04:34:27 10° E
Cosmos 2227 Rocket 3.7 04:24:05 10° N 04:29:21 38° ENE 04:34:34 10° SE
Cosmos 968 Rocket 3.6 04:27:07 23° S 04:30:27 77° ESE 04:35:44 10° NNE
STPSAT 2 (USA 217) 4.5 04:26:02 10° NNW 04:30:33 78° WSW 04:35:00 10° SSE
Lacrosse 4 Rocket 3.6 04:29:05 13° WNW 04:30:44 15° NW 04:33:17 10° NNW
Cosmos 1503 Rocket 4.2 04:28:22 29° SW 04:30:44 54° WNW 04:35:49 10° N
COSMOS 2455 2.8 04:26:03 10° NNW 04:32:02 68° WSW 04:37:58 10° SSE
UNKNOWN OBJECT B 3.2 04:35:13 10° N 04:39:05 49° WNW 04:40:53 28° SW
Delta 2 Rocket 3.6 04:37:15 17° W 04:40:43 84° N 04:45:48 10° E
ARIANE 5 R/B 3.5 04:37:15 10° N 04:41:32 29° WNW 04:43:50 20° WSW
Okean O Rocket 4.5 04:40:59 10° ENE 04:42:52 12° E 04:44:44 10° ESE
Cosmos 2221 Rocket 4.4 04:40:47 10° NNW 04:44:45 33° W 04:46:36 23° SW
Meteor 1-14 Rocket 4.3 04:41:04 13° S 04:46:06 86° E 04:51:55 10° N
ATLAS CENTAUR R/B 1.2 04:45:54 27° SW 04:47:46 67° WNW 04:51:41 10° NNE
Cosmos 1633 2.8 04:46:49 27° SW 04:48:25 48° W 04:51:56 10° N
CZ-2D R/B 4.2 04:46:06 10° N 04:50:00 36° WNW 04:52:06 22° SW
ASTEX 1 3.4 04:50:08 10° S 04:55:08 81° W 05:00:09 10° N
Cosmos 1727 Rocket 4.5 04:51:33 18° SW 04:55:44 42° W 05:01:37 10° N
SEDSat Delta rocket 4.2 04:56:27 19° SSW 04:56:46 19° SSW 04:59:45 10° SSE
Cosmos 1656 3.7 04:53:38 15° SSW 04:58:24 84° WNW 05:04:07 10° NNE
Meteor 1-25 Rocket 4.2 04:56:20 12° SSW 05:01:25 69° W 05:06:58 10° N
Cosmos 374 Rocket 4.3 04:57:02 10° NW 05:01:29 80° WSW 05:05:20 10° SSE
Cosmos 2173 Rocket 4.0 04:56:32 10° N 05:02:39 87° E 05:08:44 10° S
ADEOS 4.3 05:00:01 10° N 05:04:45 36° WNW 05:08:37 15° SW
PSLV R/B 3.8 05:01:13 10° NNE 05:05:36 71° ESE 05:09:58 10° S
Cosmos 540 Rocket 4.4 05:04:24 10° NW 05:08:40 27° W 05:12:54 10° SSW
CZ-3 R/B 4.2 04:52:46 13° SW 05:10:01 29° S 05:17:23 10° ESE
Centaur D AC-28 3.8 05:02:23 10° W 05:10:09 22° SW 05:13:49 10° SSE
Shenzhou-11 Module 3.8 05:08:28 12° S 05:10:24 20° SE 05:12:40 10° E
Helios 1A Rocket 4.5 05:14:06 10° NNW 05:17:04 20° WNW 05:19:42 11° WSW
Meteor 2-12 Rocket 4.5 05:11:27 10° NNW 05:17:30 66° W 05:23:31 10° S
Cosmos 1812 3.9 05:15:01 10° NW 05:18:15 25° W 05:21:21 11° SW
Cosmos 1602 3.7 05:14:37 10° S 05:18:29 86° E 05:22:21 10° N
Aureole 3 4.5 05:13:38 10° S 05:20:05 76° E 05:25:10 10° N
Lacrosse 5 4.3 05:15:54 10° NNW 05:20:13 27° NE 05:24:30 10° E
ATLAS 2A CENTAUR R/B 3.3 05:11:50 11° WSW 05:20:31 37° S 05:25:06 10° ESE
Cosmos 1697 Rocket 2.7 05:15:35 10° SSW 05:21:14 86° WNW 05:26:56 10° NNE
ADEOS II 3.0 05:20:02 10° N 05:24:40 32° WNW 05:29:16 10° SW
NOSS 3-1 (C) 4.2 05:17:18 10° NNW 05:25:11 82° WSW 05:33:47 10° SSE
CZ-4B R/B 3.0 05:24:54 10° NNE 05:29:01 86° ESE 05:33:19 10° SSW
PSLV R/B 3.4 05:27:16 10° WNW 05:30:12 62° NNE 05:33:08 10° ESE
Cosmos 1782 Rocket 3.6 05:26:03 10° S 05:30:27 85° E 05:34:52 10° N
Cosmos 2016 Rocket 4.1 05:24:30 10° N 05:30:53 80° W 05:37:12 10° S
Cosmos 1378 Rocket 3.6 05:28:52 10° NNW 05:33:15 64° W 05:37:38 10° S
Okean 3 4.1 05:30:01 10° NNW 05:33:51 35° W 05:37:41 10° SSW
Cosmos 1802 Rocket 4.1 05:28:48 10° NNW 05:34:56 60° W 05:40:58 10° S
Cosmos 2369 4.3 05:29:48 10° SW 05:35:05 41° WNW 05:40:25 10° N
MOS 1-B 4.4 05:29:25 10° NNE 05:35:13 85° WNW 05:41:00 10° SSW
Cosmos 2219 4.4 05:32:21 10° NW 05:36:28 21° W 05:40:35 10° SSW
Cosmos 2061 Rocket 4.1 05:32:26 10° NNW 05:38:31 57° W 05:44:37 10° SSW
Gbstr 26 Del rocket 3.2 05:35:09 10° SSW 05:38:49 56° SE 05:42:53 10° NE
Milstar 3 Cent rocket 3.6 05:33:52 10° W 05:47:10 57° S 05:53:40 10° ESE
